Regional Weather Roundup
Issued by NWS

Home | Current Version | Previous Version | Graphics & Text | Print | Product List | Glossary On
Versions: 1 2 3 4 5 6 7 8 9 10 11 12 13 14 15 16 17 18 19 20 21 22 23 24 25 26 27 28 29 30 31 32 33 34 35 36 37 38 39 40 41 42 43 44 45 46 47 48 49 50
000
ASUS43 KIND 240000
RWRIN

WEATHER ROUNDUP FOR INDIANA
NATIONAL WEATHER SERVICE INDIANAPOLIS IN
800 PM EDT WED MAY 23 2018

NOTE: "FAIR" INDICATES FEW OR NO CLOUDS BELOW 12,000 FEET WITH NO
SIGNIFICANT WEATHER AND/OR OBSTRUCTIONS TO VISIBILITY.

* - STATION DOES NOT REPORT WEATHER SUCH AS PRECIPITATION OR FOG.

+ - STATION NOT QUALITY CONTROLLED BY THE NATIONAL WEATHER SERVICE.
    USE DATA WITH CAUTION...ESPECIALLY DEWPOINT AND RELATIVE
    HUMIDITY OBSERVATIONS.

INZ001>003-010>013-019-020-240100-
NORTHWEST INDIANA

CITY           SKY/WX    TMP DP  RH WIND       PRES   REMARKS
GARY /AIRPORT/ MOSUNNY   64  57  77 N7        30.16S
MICHIGAN CITY+ FAIR      68  50  52 N3        30.17S
MONTICELLO +   FAIR     N/A N/A N/A SE3       30.12S
RENSSELAER +   FAIR      79  27  14 E7        30.13S

$$

LMZ046-743>745-240100-
SOUTHERN LAKE MICHIGAN

STATION/POSITION TIME  TEMP    WIND        PRES    WAVE
                       AIR SEA DIR/SP/G            HT
                 (UTC) (F)     (DEG/KT/KT) (MB)    (FT)
BURNS HARBOR     2340   61      60/  7/  8 1021.7S
MICHIGAN CITY    2330   58      40/  9/ 10   N/A
5NW MICH CITY    2350   58 57   80/  6/  6   N/A     1

$$

INZ004-005-014>016-021>024-240100-
NORTH CENTRAL INDIANA

CITY           SKY/WX    TMP DP  RH WIND       PRES   REMARKS
ELKHART        FAIR      81  59  47 CALM      30.15S
GOSHEN         FAIR      75  51  43 NE7       30.15S
6HR MIN TEMP:  74; 6HR MAX TEMP:  79;

PERU/GRISSOM   FAIR      75  52  43 E6        30.13S
6HR MIN TEMP:  75; 6HR MAX TEMP:  80; 6HR PCP: TRACE;

SOUTH BEND     FAIR      73  58  59 N8        30.16S
6HR MIN TEMP:  73; 6HR MAX TEMP:  79;


$$

INZ006>009-017-018-025>027-240100-
NORTHEAST INDIANA

CITY           SKY/WX    TMP DP  RH WIND       PRES   REMARKS
ANGOLA *+      FAIR      73  50  43 NE7       30.16R
FORT WAYNE     FAIR      75  53  46 E8        30.15S
6HR MIN TEMP:  75; 6HR MAX TEMP:  80;

KENDALLVILLE + FAIR      75  42  30 CALM      30.16S

$$

INZ028-029-035-036-043>045-051>053-240100-
WEST CENTRAL INDIANA

CITY           SKY/WX    TMP DP  RH WIND       PRES   REMARKS
CRAWFORDSVL +  FAIR      77  51  39 E7        30.12S
6HR MIN TEMP:  76; 6HR MAX TEMP:  80;

GREENCASTLE +  FAIR      79  50  36 CALM      30.12S
LAFAYETTE      FAIR      76  52  43 E9        30.11S
6HR MIN TEMP:  74; 6HR MAX TEMP:  80;

TERRE HAUTE    FAIR      81  56  42 NE8       30.09F
6HR MIN TEMP:  80; 6HR MAX TEMP:  86;


$$

INZ030>032-037>040-046>048-054>057-064-065-240100-
CENTRAL INDIANA

CITY           SKY/WX    TMP DP  RH WIND       PRES   REMARKS
ANDERSON       FAIR      77  48  35 NE3       30.14S
INDIANAPOLIS   MOCLDY    78  51  38 NE9       30.11S
6HR MIN TEMP:  78; 6HR MAX TEMP:  83;

-EAGLE CREEK   FAIR      79  50  36 NE7       30.11S
6HR MIN TEMP:  78; 6HR MAX TEMP:  83;

KOKOMO +       FAIR      76  55  48 NE6       30.15R
6HR MIN TEMP:  76; 6HR MAX TEMP:  80;

MT COMFORT *+  FAIR      75  57  53 E9        30.13S
SHELBYVILLE    FAIR      79  52  38 NE10      30.11S
6HR MIN TEMP:  79; 6HR MAX TEMP:  84;


$$

INZ033-034-041-042-049-050-058-059-240100-
EAST CENTRAL INDIANA

CITY           SKY/WX    TMP DP  RH WIND       PRES   REMARKS
MUNCIE         FAIR      78  49  35 E8        30.14S
6HR MIN TEMP:  78; 6HR MAX TEMP:  82;

RICHMOND +     FAIR      72  54  53 NE8       30.15S

$$

INZ060-061-067>069-081>083-085>088-240100-
SOUTHWEST INDIANA

CITY           SKY/WX    TMP DP  RH WIND       PRES   REMARKS
EVANSVILLE     FAIR      82  62  50 E6        30.08R
6HR MIN TEMP:  82; 6HR MAX TEMP:  86;

HUNTINGBURG +  FAIR      79  58  48 NE8       30.09R
6HR MIN TEMP:  79; 6HR MAX TEMP:  84;


$$

INZ062-063-066-070>080-084-089>092-240100-
SOUTH CENTRAL AND SOUTHEAST INDIANA

CITY           SKY/WX    TMP DP  RH WIND       PRES   REMARKS
BLOOMINGTON    FAIR      79  56  45 NE7       30.11S
6HR MIN TEMP:  78; 6HR MAX TEMP:  83;

FRENCH LICK *+ FAIR      77  45  31 NE5       30.11R
SEYMOUR +      FAIR      81  57  44 E8        30.11R

$$




USA.gov is the U.S. government's official web portal to all federal, state and local government web resources and services.